LiveATC.Net - Listen to live air traffic control over the Internet!


ICAO: LPMA  IATA: FNC   Airport: Madeira International Airport
City: Madeira
Country: Portugal   Continent: Europe
LPMA METAR Weather: LPMA 151430Z 03014KT 360V060 4000 RA SCT008 BKN012 20/19 Q1023
LPMA ADS-B Flight Tracking  (ADSBExchange)
LPMA Flight Activity (FlightAware)

LPMA Approach
Feed Status: UP   Listeners: 4
Listen in your browser - HTML5 player (in browser, HTML5)
Click here to listen with your own player (launches your MP3 player)
Archive Access: LPMA Approach
FacilityFrequency
Madeira Approach119.605

NOTICE

Unauthorized use prohibited. See LiveATC.net Terms of Service


Airport/ARTCC Code
Frequency Search
(e.g., 124.400, 128.75)
Site-wide search
 


Browse Feeds
Top 50 Feeds
HF Oceanic Feeds
Coverage Map
Bad Weather Areas

LiveATC FAQ

Increase Coverage

Contact LiveATC.net
Press Inquiries

LiveATC on iPhone
LiveATC on Android

LiveATC Mobile
(Mobile browser)

ATC Audio Archives
Interesting Recordings

LiveATC Forums


Home Page
About LiveATC.net


Terms of Use
Privacy Policy

AIRMETs/SIGMETs

FAA Airport Status
NAS Status
Arrival Demand


Server Software By:
Icecast.org
Liquidsoap